Flag for Switzerland Weather past 2 weeks in Stäfa, Zurich, Switzerland

Now
52 °F

Cool.


Feels Like: 52 °F
Forecast: 40 / 54 °F
Wind: No wind

Location: Zurich Town / Ville.

Current Time: Apr 27, 2015 at 8:04:03 AM

Latest Report: Apr 27, 2015 at 7:00 AM


Visibility: N/A

Pressure: 29.61 "Hg

Humidity: 89%

Dew point: 49 °F

Location of StäfaLocation

Historic Weather in Stäfa — Graph

°F

Stäfa temperature yesterday

Maximum temperature yesterday: 67 °F (at 6:00 PM)
Minimum temperature yesterday: 48 °F (at 7:00 AM)
Average temperature yesterday: 57 °F

Past Weeks' High & Low Weather Summary

 TemperatureHumidityPressure
High72 °F (Apr 15, 5:00 PM)96% (Apr 17, 10:00 PM)30.47 "Hg (Apr 17, 10:00 PM)
Low36 °F (Apr 19, 7:00 AM)19% (Apr 22, 7:00 PM)29.61 "Hg (Apr 27, 6:00 AM)
Average55 °F57%30.11 "Hg
* Reported Apr 12 6:00 AM — Apr 27 6:00 AM, Stäfa, Weather by CustomWeather, © 2015

Note: Actual official high and low records may vary slightly from our data, if they occured in-between our weather recording intervals... More about our weather records

Advertising

Stäfa weather history for previous 24 hours

 ConditionsComfort  
Time TempWeatherWind HumidityBarometerVisibility
6:00 AM
Mon, Apr 27
51 °FCool.1 mph91%29.61 "HgN/A
5:00 AM52 °FCool.1 mph90%29.62 "HgN/A
4:00 AM53 °FCool.2 mph84%29.62 "HgN/A
3:00 AM55 °FCool.3 mph79%29.63 "HgN/A
2:00 AM53 °FCool.2 mph89%29.65 "HgN/A
1:00 AM54 °FCool.1 mph87%29.65 "HgN/A
12:00 AM56 °FCool.1 mph79%29.65 "HgN/A
10:00 PM
Sun, Apr 26
61 °FCool.8 mph67%29.65 "HgN/A
9:00 PM60 °FCool.3 mph68%29.66 "HgN/A
8:00 PM63 °FPartly sunny.3 mph62%29.64 "HgN/A
7:00 PM65 °FMild.3 mph56%29.62 "HgN/A
6:00 PM67 °FMild.6 mph52%29.63 "HgN/A
5:00 PM65 °FMild.3 mph51%29.67 "HgN/A
4:00 PM64 °FMild.2 mph54%29.70 "HgN/A
3:00 PM64 °FMild.2 mph55%29.72 "HgN/A
2:00 PM63 °FMild.3 mph57%29.76 "HgN/A
1:00 PM63 °FMild.2 mph60%29.78 "HgN/A
12:00 PM59 °FCool.1 mph65%29.82 "HgN/A
11:00 AM56 °FCool.3 mph80%29.85 "HgN/A
10:00 AM54 °FCool.2 mph83%29.86 "HgN/A
9:00 AM53 °FCool.1 mph86%29.87 "HgN/A
8:00 AM51 °FScattered clouds.2 mph94%29.89 "HgN/A
Weather by CustomWeather, © 2015

See weather overviewHow to use our weather pages